This is the latest recevied weather packets stored in our database for station/object KJ4UBX-11. If no packets are shown the sender has not sent any weather packets the latest 10 day(s).
| Time | Temp. | Humidity | Pressure | Rain* | Wind** | Luminosity | Snow |
|---|---|---|---|---|---|---|---|
| 1777726552 | 8.33° C | 98% | 1012.3 hPa | - | - | - | - |
| 1777725969 | 7.78° C | 100% | 1012.2 hPa | - | - | - | - |
| 1777725387 | 7.78° C | 100% | 1012.1 hPa | - | - | - | - |
| 1777724804 | 7.78° C | 100% | 1012.3 hPa | - | - | - | - |
| 1777724222 | 7.78° C | 100% | 1012.7 hPa | - | - | - | - |
| 1777723639 | 7.78° C | 97% | 1012.8 hPa | - | - | - | - |
| 1777723056 | 7.78° C | 96% | 1012.8 hPa | - | - | - | - |
| 1777722473 | 7.78° C | 85% | 1012.7 hPa | - | - | - | - |
| 1777721890 | 7.78° C | 83% | 1012.6 hPa | - | - | - | - |
| 1777721307 | 7.78° C | 81% | 1012.3 hPa | - | - | - | - |
| 1777720724 | 7.78° C | 84% | 1012.2 hPa | - | - | - | - |
| 1777720140 | 7.22° C | 85% | 1012.2 hPa | - | - | - | - |
| 1777719557 | 6.67° C | 88% | 1012.2 hPa | - | - | - | - |
| 1777718974 | 6.67° C | 86% | 1012.2 hPa | - | - | - | - |
| 1777718392 | 6.67° C | 87% | 1012.1 hPa | - | - | - | - |
| 1777717809 | 6.11° C | 88% | 1011.9 hPa | - | - | - | - |
| 1777717226 | 6.11° C | 91% | 1011.7 hPa | - | - | - | - |
| 1777716643 | 5.56° C | 87% | 1011.3 hPa | - | - | - | - |
| 1777716060 | 5.56° C | 89% | 1011.3 hPa | - | - | - | - |
| 1777715477 | 5.56° C | 91% | 1011.4 hPa | - | - | - | - |
| 1777714893 | 5° C | 92% | 1011.2 hPa | - | - | - | - |
| 1777714311 | 5° C | 90% | 1011.2 hPa | - | - | - | - |
| 1777713729 | 5° C | 89% | 1011.4 hPa | - | - | - | - |
| 1777713146 | 5° C | 86% | 1011.3 hPa | - | - | - | - |
| 1777712564 | 5.56° C | 83% | 1011.4 hPa | - | - | - | - |
* Rain since midnight (hover to see other rain measurements)
** Current wind speed in m/s (hover to see current wind gust speed)